| time (UTC) | temp C | wind direction | speed KPH | gust KPH | rain 1hr cm | rain 24hr cm | rain mn cm | humidity % | barometer mb |
| 20260509002653 | 17 | 49 | 0.0 | 3.2 | 0.00 | 0.00 | 0.00 | 91 | 1024.8 |
| 20260509002150 | 17 | 81 | 0.0 | 3.2 | 0.00 | 0.00 | 0.00 | 91 | 1024.9 |
| 20260509001648 | 17 | 117 | 1.6 | 3.2 | 0.00 | 0.00 | 0.00 | 90 | 1024.9 |
| 20260509001143 | 18 | 63 | 1.6 | 3.2 | 0.00 | 0.00 | 0.00 | 90 | 1024.8 |
| 20260509000641 | 18 | 105 | 1.6 | 3.2 | 0.00 | 0.00 | 0.00 | 89 | 1024.5 |
| 20260509000138 | 18 | 99 | 0.0 | 1.6 | 0.00 | 0.00 | 0.00 | 88 | 1024.4 |
| 20260508235635 | 18 | 90 | 0.0 | 0.0 | 0.00 | 0.00 | 0.00 | 87 | 1024.6 |
| 20260508235132 | 18 | 90 | 0.0 | 0.0 | 0.00 | 0.00 | 0.00 | 87 | 1024.2 |
| 20260508234629 | 18 | 106 | 1.6 | 1.6 | 0.00 | 0.00 | 0.00 | 87 | 1024.4 |
| 20260508234125 | 18 | 90 | 0.0 | 3.2 | 0.00 | 0.00 | 0.00 | 86 | 1024.4 |
| 20260508233625 | 19 | 105 | 1.6 | 3.2 | 0.00 | 0.00 | 0.00 | 85 | 1024.3 |
| 20260508233122 | 19 | 74 | 0.0 | 1.6 | 0.00 | 0.00 | 0.00 | 84 | 1024.3 |
| 20260508232619 | 19 | 29 | 0.0 | 0.0 | 0.00 | 0.00 | 0.00 | 83 | 1024.3 |
| 20260508232116 | 19 | 29 | 0.0 | 3.2 | 0.00 | 0.00 | 0.00 | 82 | 1024.5 |
| 20260508231614 | 20 | 103 | 1.6 | 3.2 | 0.00 | 0.00 | 0.00 | 80 | 1024.3 |
| 20260508231110 | 20 | 23 | 0.0 | 1.6 | 0.00 | 0.00 | 0.00 | 79 | 1024.4 |
| 20260508230607 | 20 | 83 | 1.6 | 3.2 | 0.00 | 0.00 | 0.00 | 77 | 1024.6 |
| 20260508225601 | 20 | 90 | 0.0 | 1.6 | 0.00 | 0.00 | 0.00 | 76 | 1024.3 |
| 20260508225057 | 20 | 114 | 1.6 | 3.2 | 0.00 | 0.00 | 0.00 | 73 | 1024.7 |
| 20260508224555 | 20 | 23 | 0.0 | 1.6 | 0.00 | 0.00 | 0.00 | 71 | 1024.8 |
| 20260508224052 | 20 | 188 | 0.0 | 0.0 | 0.00 | 0.00 | 0.00 | 71 | 1024.6 |
| 20260508223550 | 20 | 12 | 1.6 | 3.2 | 0.00 | 0.00 | 0.00 | 69 | 1024.4 |
| 20260508223047 | 20 | 0 | 0.0 | 0.0 | 0.00 | 0.00 | 0.00 | 68 | 1024.6 |
| 20260508222544 | 21 | 40 | 0.0 | 3.2 | 0.00 | 0.00 | 0.00 | 68 | 1024.6 |
| 20260508222041 | 21 | 99 | 0.0 | 0.0 | 0.00 | 0.00 | 0.00 | 66 | 1024.5 |
| 20260508221537 | 21 | 15 | 1.6 | 1.6 | 0.00 | 0.00 | 0.00 | 62 | 1024.3 |
| 20260508221033 | 21 | 0 | 0.0 | 0.0 | 0.00 | 0.00 | 0.00 | 63 | 1024.3 |
| 20260508220530 | 21 | 29 | 0.0 | 0.0 | 0.00 | 0.00 | 0.00 | 63 | 1024.6 |
| 20260508220026 | 21 | 151 | 1.6 | 3.2 | 0.00 | 0.00 | 0.00 | 55 | 1024.5 |
| 20260508215524 | 21 | 148 | 3.2 | 6.4 | 0.00 | 0.00 | 0.00 | 58 | 1024.3 |
| 20260508215020 | 21 | 152 | 4.8 | 6.4 | 0.00 | 0.00 | 0.00 | 57 | 1024.2 |
| 20260508214518 | 21 | 135 | 4.8 | 4.8 | 0.00 | 0.00 | 0.00 | 55 | 1024.4 |
| 20260508214014 | 21 | 162 | 1.6 | 3.2 | 0.00 | 0.00 | 0.00 | 54 | 1024.6 |
| 20260508213512 | 21 | 162 | 3.2 | 4.8 | 0.00 | 0.00 | 0.00 | 53 | 1024.7 |
| 20260508213007 | 21 | 190 | 4.8 | 4.8 | 0.00 | 0.00 | 0.00 | 53 | 1024.6 |
| 20260508212504 | 21 | 106 | 1.6 | 4.8 | 0.00 | 0.00 | 0.00 | 52 | 1024.6 |
| 20260508212000 | 21 | 120 | 1.6 | 4.8 | 0.00 | 0.00 | 0.00 | 54 | 1024.4 |
| 20260508211455 | 21 | 188 | 3.2 | 6.4 | 0.00 | 0.00 | 0.00 | 58 | 1024.7 |
| 20260508210952 | 21 | 124 | 4.8 | 4.8 | 0.00 | 0.00 | 0.00 | 53 | 1024.9 |
| 20260508210449 | 21 | 225 | 0.0 | 3.2 | 0.00 | 0.00 | 0.00 | 53 | 1024.4 |
| 20260508205945 | 21 | 180 | 4.8 | 6.4 | 0.00 | 0.00 | 0.00 | 53 | 1024.5 |
| 20260508205443 | 21 | 172 | 4.8 | 8.0 | 0.00 | 0.00 | 0.00 | 50 | 1024.6 |
| 20260508204939 | 22 | 324 | 3.2 | 4.8 | 0.00 | 0.00 | 0.00 | 52 | 1024.4 |
| 20260508204437 | 22 | 180 | 3.2 | 4.8 | 0.00 | 0.00 | 0.00 | 53 | 1024.4 |
| 20260508203931 | 22 | 187 | 3.2 | 6.4 | 0.00 | 0.00 | 0.00 | 50 | 1024.6 |
| 20260508203428 | 22 | 166 | 3.2 | 6.4 | 0.00 | 0.00 | 0.00 | 54 | 1024.7 |
| 20260508202924 | 22 | 117 | 3.2 | 6.4 | 0.00 | 0.00 | 0.00 | 51 | 1024.6 |
| 20260508202421 | 22 | 180 | 0.0 | 6.4 | 0.00 | 0.00 | 0.00 | 52 | 1024.9 |
| 20260508201918 | 22 | 139 | 3.2 | 6.4 | 0.00 | 0.00 | 0.00 | 52 | 1025.0 |
| 20260508201415 | 22 | 140 | 0.0 | 3.2 | 0.00 | 0.00 | 0.00 | 48 | 1025.1 |
| 20260508200912 | 22 | 192 | 3.2 | 6.4 | 0.00 | 0.00 | 0.00 | 52 | 1025.4 |
| 20260508200409 | 22 | 144 | 0.0 | 3.2 | 0.00 | 0.00 | 0.00 | 47 | 1025.4 |
| 20260508195904 | 22 | 193 | 8.0 | 8.0 | 0.00 | 0.00 | 0.00 | 47 | 1025.2 |
| 20260508195401 | 22 | 103 | 1.6 | 4.8 | 0.00 | 0.00 | 0.00 | 50 | 1025.0 |
| 20260508194857 | 22 | 159 | 3.2 | 4.8 | 0.00 | 0.00 | 0.00 | 49 | 1025.3 |
| 20260508194354 | 22 | 15 | 3.2 | 3.2 | 0.00 | 0.00 | 0.00 | 47 | 1025.5 |
| 20260508193851 | 22 | 198 | 6.4 | 8.0 | 0.00 | 0.00 | 0.00 | 47 | 1025.3 |
| 20260508193348 | 22 | 262 | 1.6 | 6.4 | 0.00 | 0.00 | 0.00 | 49 | 1025.1 |
| 20260508192844 | 22 | 180 | 4.8 | 8.0 | 0.00 | 0.00 | 0.00 | 52 | 1025.4 |
| 20260508192341 | 22 | 78 | 3.2 | 6.4 | 0.00 | 0.00 | 0.00 | 51 | 1025.5 |
| 20260508191838 | 21 | 151 | 1.6 | 11.3 | 0.00 | 0.00 | 0.00 | 53 | 1025.8 |
| 20260508191336 | 22 | 162 | 4.8 | 11.3 | 0.00 | 0.00 | 0.00 | 53 | 1025.7 |
| 20260508190833 | 22 | 251 | 3.2 | 8.0 | 0.00 | 0.00 | 0.00 | 49 | 1025.9 |
| 20260508190329 | 22 | 119 | 3.2 | 6.4 | 0.00 | 0.00 | 0.00 | 54 | 1025.9 |
| 20260508185826 | 22 | 215 | 1.6 | 8.0 | 0.00 | 0.00 | 0.00 | 50 | 1025.7 |
| 20260508185323 | 21 | 180 | 3.2 | 6.4 | 0.00 | 0.00 | 0.00 | 50 | 1026.0 |
| 20260508184820 | 22 | 146 | 3.2 | 8.0 | 0.00 | 0.00 | 0.00 | 51 | 1026.1 |
| 20260508184317 | 21 | 259 | 0.0 | 6.4 | 0.00 | 0.00 | 0.00 | 48 | 1026.2 |
| 20260508183814 | 21 | 287 | 3.2 | 9.7 | 0.00 | 0.00 | 0.00 | 55 | 1026.1 |
| 20260508183311 | 22 | 138 | 4.8 | 11.3 | 0.00 | 0.00 | 0.00 | 52 | 1026.4 |
| 20260508182806 | 22 | 190 | 6.4 | 6.4 | 0.00 | 0.00 | 0.00 | 54 | 1026.7 |
| 20260508182306 | 21 | 124 | 6.4 | 14.5 | 0.00 | 0.00 | 0.00 | 52 | 1026.5 |
| 20260508181759 | 21 | 135 | 11.3 | 11.3 | 0.00 | 0.00 | 0.00 | 51 | 1026.5 |
| 20260508181256 | 21 | 134 | 8.0 | 8.0 | 0.00 | 0.00 | 0.00 | 52 | 1026.8 |
| 20260508180754 | 21 | 127 | 9.7 | 16.1 | 0.00 | 0.00 | 0.00 | 53 | 1026.5 |
| 20260508180250 | 21 | 151 | 6.4 | 9.7 | 0.00 | 0.00 | 0.00 | 53 | 1026.5 |
| 20260508175746 | 21 | 90 | 4.8 | 6.4 | 0.00 | 0.00 | 0.00 | 49 | 1026.6 |
| 20260508175243 | 21 | 127 | 6.4 | 9.7 | 0.00 | 0.00 | 0.00 | 51 | 1026.8 |
| 20260508174741 | 21 | 237 | 3.2 | 17.7 | 0.00 | 0.00 | 0.00 | 54 | 1027.1 |
| 20260508174238 | 21 | 135 | 4.8 | 8.0 | 0.00 | 0.00 | 0.00 | 52 | 1027.1 |
| 20260508173735 | 21 | 205 | 4.8 | 9.7 | 0.00 | 0.00 | 0.00 | 56 | 1026.9 |
| 20260508173231 | 21 | 99 | 0.0 | 4.8 | 0.00 | 0.00 | 0.00 | 53 | 1027.0 |
| 20260508172727 | 21 | 126 | 1.6 | 6.4 | 0.00 | 0.00 | 0.00 | 50 | 1027.3 |
| 20260508172224 | 21 | 208 | 4.8 | 11.3 | 0.00 | 0.00 | 0.00 | 53 | 1026.7 |
| 20260508171721 | 21 | 117 | 3.2 | 9.7 | 0.00 | 0.00 | 0.00 | 55 | 1027.2 |
| 20260508171217 | 21 | 165 | 4.8 | 11.3 | 0.00 | 0.00 | 0.00 | 55 | 1027.2 |
| 20260508170714 | 21 | 194 | 8.0 | 11.3 | 0.00 | 0.00 | 0.00 | 57 | 1027.3 |
| 20260508170212 | 21 | 251 | 4.8 | 9.7 | 0.00 | 0.00 | 0.00 | 57 | 1027.5 |
| 20260508165709 | 20 | 186 | 1.6 | 12.9 | 0.00 | 0.00 | 0.00 | 58 | 1027.8 |
| 20260508165206 | 21 | 186 | 8.0 | 14.5 | 0.00 | 0.00 | 0.00 | 60 | 1027.7 |
| 20260508164702 | 20 | 189 | 8.0 | 16.1 | 0.00 | 0.00 | 0.00 | 59 | 1027.7 |
| 20260508164159 | 20 | 277 | 1.6 | 11.3 | 0.00 | 0.00 | 0.00 | 60 | 1027.8 |
| 20260508163657 | 20 | 124 | 6.4 | 11.3 | 0.00 | 0.00 | 0.00 | 58 | 1028.0 |
| 20260508163154 | 20 | 185 | 4.8 | 12.9 | 0.00 | 0.00 | 0.00 | 59 | 1028.1 |
| 20260508162649 | 20 | 188 | 0.0 | 14.5 | 0.00 | 0.00 | 0.00 | 62 | 1028.2 |
| 20260508162147 | 20 | 203 | 1.6 | 9.7 | 0.00 | 0.00 | 0.00 | 61 | 1028.1 |
| 20260508161644 | 20 | 196 | 9.7 | 9.7 | 0.00 | 0.00 | 0.00 | 58 | 1028.1 |
| 20260508161142 | 20 | 116 | 4.8 | 6.4 | 0.00 | 0.00 | 0.00 | 59 | 1028.2 |
| 20260508160640 | 20 | 139 | 3.2 | 12.9 | 0.00 | 0.00 | 0.00 | 59 | 1028.2 |
| 20260508160137 | 19 | 196 | 14.5 | 14.5 | 0.00 | 0.00 | 0.00 | 61 | 1028.3 |
| 20260508155634 | 19 | 59 | 3.2 | 8.0 | 0.00 | 0.00 | 0.00 | 58 | 1028.6 |
| 20260508155131 | 19 | 90 | 0.0 | 8.0 | 0.00 | 0.00 | 0.00 | 61 | 1028.5 |
| 20260508154628 | 19 | 270 | 0.0 | 11.3 | 0.00 | 0.00 | 0.00 | 59 | 1028.7 |
| 20260508154124 | 19 | 157 | 4.8 | 14.5 | 0.00 | 0.00 | 0.00 | 61 | 1028.7 |
| 20260508153621 | 19 | 180 | 4.8 | 11.3 | 0.00 | 0.00 | 0.00 | 62 | 1028.6 |
| 20260508153118 | 19 | 154 | 6.4 | 16.1 | 0.00 | 0.00 | 0.00 | 62 | 1028.8 |
| 20260508152615 | 18 | 32 | 4.8 | 12.9 | 0.00 | 0.00 | 0.00 | 59 | 1028.7 |
| 20260508152110 | 18 | 180 | 8.0 | 14.5 | 0.00 | 0.00 | 0.00 | 60 | 1028.9 |
| 20260508151607 | 18 | 129 | 11.3 | 14.5 | 0.00 | 0.00 | 0.00 | 62 | 1028.7 |
| 20260508151104 | 18 | 174 | 6.4 | 12.9 | 0.00 | 0.00 | 0.00 | 62 | 1028.6 |
| 20260508150601 | 18 | 108 | 6.4 | 11.3 | 0.00 | 0.00 | 0.00 | 63 | 1028.6 |
| 20260508150057 | 18 | 107 | 4.8 | 12.9 | 0.00 | 0.00 | 0.00 | 68 | 1028.6 |
| 20260508145554 | 18 | 134 | 8.0 | 19.3 | 0.00 | 0.00 | 0.00 | 66 | 1028.4 |
| 20260508145050 | 18 | 135 | 9.7 | 16.1 | 0.00 | 0.00 | 0.00 | 66 | 1028.6 |
| 20260508144548 | 18 | 150 | 12.9 | 14.5 | 0.00 | 0.00 | 0.00 | 66 | 1028.6 |
| 20260508144045 | 17 | 135 | 11.3 | 14.5 | 0.00 | 0.00 | 0.00 | 65 | 1028.7 |
| 20260508143543 | 18 | 115 | 6.4 | 20.9 | 0.00 | 0.00 | 0.00 | 64 | 1028.6 |
| 20260508143039 | 18 | 209 | 1.6 | 11.3 | 0.00 | 0.00 | 0.00 | 68 | 1028.6 |
| 20260508142536 | 18 | 73 | 8.0 | 12.9 | 0.00 | 0.00 | 0.00 | 68 | 1028.6 |
| 20260508142032 | 18 | 96 | 4.8 | 14.5 | 0.00 | 0.00 | 0.00 | 66 | 1028.8 |
| 20260508141529 | 17 | 38 | 4.8 | 19.3 | 0.00 | 0.00 | 0.00 | 69 | 1028.7 |
| 20260508141027 | 17 | 95 | 11.3 | 14.5 | 0.00 | 0.00 | 0.00 | 69 | 1029.1 |
| 20260508140524 | 17 | 101 | 8.0 | 12.9 | 0.00 | 0.00 | 0.00 | 72 | 1029.0 |
| 20260508140020 | 17 | 75 | 6.4 | 12.9 | 0.00 | 0.00 | 0.00 | 72 | 1028.7 |
| 20260508135516 | 17 | 70 | 3.2 | 16.1 | 0.00 | 0.00 | 0.00 | 71 | 1028.8 |
| 20260508135012 | 17 | 81 | 9.7 | 12.9 | 0.00 | 0.00 | 0.00 | 72 | 1028.6 |
| 20260508134509 | 17 | 135 | 4.8 | 16.1 | 0.00 | 0.00 | 0.00 | 74 | 1028.7 |
| 20260508134006 | 17 | 90 | 4.8 | 17.7 | 0.00 | 0.00 | 0.00 | 77 | 1028.7 |
| 20260508133503 | 17 | 109 | 3.2 | 8.0 | 0.00 | 0.00 | 0.00 | 82 | 1028.6 |
| 20260508133000 | 17 | 77 | 6.4 | 9.7 | 0.00 | 0.00 | 0.00 | 83 | 1028.7 |
| 20260508132458 | 16 | 41 | 0.0 | 8.0 | 0.00 | 0.00 | 0.00 | 83 | 1028.7 |
| 20260508131954 | 16 | 104 | 8.0 | 11.3 | 0.00 | 0.00 | 0.00 | 83 | 1028.6 |
| 20260508131449 | 17 | 150 | 9.7 | 9.7 | 0.00 | 0.00 | 0.00 | 84 | 1028.5 |
| 20260508130946 | 16 | 101 | 4.8 | 16.1 | 0.00 | 0.00 | 0.00 | 83 | 1028.5 |
| 20260508130444 | 16 | 112 | 6.4 | 14.5 | 0.00 | 0.00 | 0.00 | 85 | 1028.2 |
| 20260508125939 | 16 | 77 | 4.8 | 9.7 | 0.00 | 0.00 | 0.00 | 86 | 1028.5 |
| 20260508125435 | 16 | 96 | 4.8 | 14.5 | 0.00 | 0.00 | 0.00 | 90 | 1028.4 |
| 20260508124934 | 16 | 120 | 6.4 | 12.9 | 0.00 | 0.00 | 0.00 | 95 | 1028.2 |
| 20260508124431 | 15 | 90 | 4.8 | 11.3 | 0.00 | 0.00 | 0.00 | 98 | 1028.3 |
| 20260508123928 | 15 | 116 | 4.8 | 16.1 | 0.00 | 0.00 | 0.00 | 99 | 1028.0 |
| 20260508123427 | 14 | 92 | 8.0 | 12.9 | 0.00 | 0.00 | 0.00 | 99 | 1027.8 |
| 20260508122923 | 15 | 98 | 3.2 | 6.4 | 0.00 | 0.00 | 0.00 | 99 | 1027.9 |
| 20260508122420 | 14 | 87 | 4.8 | 8.0 | 0.00 | 0.00 | 0.00 | 99 | 1028.1 |
| 20260508121917 | 14 | 90 | 3.2 | 8.0 | 0.00 | 0.00 | 0.00 | 99 | 1028.2 |
| 20260508121415 | 13 | 81 | 8.0 | 11.3 | 0.00 | 0.00 | 0.00 | 99 | 1027.7 |
| 20260508120913 | 13 | 110 | 4.8 | 8.0 | 0.00 | 0.00 | 0.00 | 99 | 1027.5 |
| 20260508120410 | 13 | 90 | 6.4 | 8.0 | 0.00 | 0.00 | 0.00 | 99 | 1028.0 |
| 20260508115908 | 13 | 76 | 4.8 | 8.0 | 0.00 | 0.00 | 0.00 | 99 | 1027.7 |
| 20260508115406 | 13 | 97 | 4.8 | 6.4 | 0.00 | 0.00 | 0.00 | 99 | 1027.8 |
| 20260508114901 | 13 | 104 | 4.8 | 4.8 | 0.00 | 0.00 | 0.00 | 99 | 1027.5 |
| 20260508114359 | 12 | 41 | 0.0 | 3.2 | 0.00 | 0.00 | 0.00 | 99 | 1027.7 |
| 20260508113855 | 12 | 54 | 1.6 | 3.2 | 0.00 | 0.00 | 0.00 | 99 | 1027.4 |
| 20260508113353 | 12 | 63 | 1.6 | 3.2 | 0.00 | 0.00 | 0.00 | 99 | 1027.4 |
| 20260508112850 | 12 | 57 | 0.0 | 3.2 | 0.00 | 0.00 | 0.00 | 99 | 1027.1 |
| 20260508112347 | 12 | 78 | 0.0 | 4.8 | 0.00 | 0.00 | 0.00 | 99 | 1027.1 |
| 20260508111843 | 11 | 55 | 4.8 | 4.8 | 0.00 | 0.00 | 0.00 | 99 | 1026.9 |
| 20260508111340 | 11 | 20 | 1.6 | 4.8 | 0.00 | 0.00 | 0.00 | 99 | 1026.6 |
| 20260508110838 | 11 | 26 | 3.2 | 3.2 | 0.00 | 0.00 | 0.00 | 99 | 1026.8 |
| 20260508110335 | 11 | 52 | 3.2 | 4.8 | 0.00 | 0.00 | 0.00 | 99 | 1026.6 |
| 20260508105835 | 11 | 66 | 3.2 | 3.2 | 0.00 | 0.00 | 0.00 | 99 | 1026.5 |
| 20260508105332 | 11 | 60 | 3.2 | 4.8 | 0.00 | 0.00 | 0.00 | 99 | 1026.5 |
| 20260508104829 | 11 | 75 | 3.2 | 3.2 | 0.00 | 0.00 | 0.00 | 99 | 1026.6 |
| 20260508104325 | 11 | 33 | 3.2 | 4.8 | 0.00 | 0.00 | 0.00 | 99 | 1026.4 |
| 20260508103823 | 11 | 40 | 3.2 | 4.8 | 0.00 | 0.00 | 0.00 | 99 | 1026.3 |
| 20260508103320 | 11 | 77 | 1.6 | 4.8 | 0.00 | 0.00 | 0.00 | 99 | 1026.3 |
| 20260508102817 | 11 | 71 | 1.6 | 3.2 | 0.00 | 0.00 | 0.00 | 99 | 1026.3 |
| 20260508102315 | 11 | 97 | 1.6 | 1.6 | 0.00 | 0.00 | 0.00 | 99 | 1026.1 |
| 20260508101812 | 11 | 4 | 3.2 | 4.8 | 0.00 | 0.00 | 0.00 | 99 | 1026.0 |
| 20260508101310 | 11 | 24 | 3.2 | 4.8 | 0.00 | 0.00 | 0.00 | 99 | 1025.9 |
| 20260508100807 | 12 | 30 | 3.2 | 4.8 | 0.00 | 0.00 | 0.00 | 99 | 1025.7 |
| 20260508100306 | 11 | 19 | 3.2 | 3.2 | 0.00 | 0.00 | 0.00 | 99 | 1025.6 |
| 20260508095801 | 11 | 9 | 3.2 | 4.8 | 0.00 | 0.00 | 0.00 | 99 | 1025.7 |
| 20260508095259 | 11 | 10 | 0.0 | 3.2 | 0.00 | 0.00 | 0.00 | 99 | 1025.5 |
| 20260508094755 | 11 | 49 | 3.2 | 4.8 | 0.00 | 0.00 | 0.00 | 99 | 1025.4 |
| 20260508094252 | 11 | 74 | 0.0 | 3.2 | 0.00 | 0.00 | 0.00 | 99 | 1025.5 |
| 20260508093749 | 11 | 48 | 3.2 | 4.8 | 0.00 | 0.00 | 0.00 | 99 | 1025.7 |
| 20260508093247 | 11 | 66 | 1.6 | 4.8 | 0.00 | 0.00 | 0.00 | 99 | 1025.4 |
| 20260508092743 | 12 | 40 | 4.8 | 4.8 | 0.00 | 0.00 | 0.00 | 99 | 1025.5 |
| 20260508092242 | 12 | 49 | 3.2 | 3.2 | 0.00 | 0.00 | 0.00 | 99 | 1025.5 |
| 20260508091740 | 12 | 48 | 3.2 | 3.2 | 0.00 | 0.00 | 0.00 | 99 | 1025.5 |
| 20260508091236 | 12 | 48 | 3.2 | 3.2 | 0.00 | 0.00 | 0.00 | 99 | 1025.2 |
| 20260508090734 | 12 | 90 | 0.0 | 3.2 | 0.00 | 0.00 | 0.00 | 99 | 1025.1 |
| 20260508090232 | 12 | 51 | 0.0 | 4.8 | 0.00 | 0.00 | 0.00 | 99 | 1025.2 |
| 20260508085727 | 12 | 38 | 3.2 | 3.2 | 0.00 | 0.00 | 0.00 | 99 | 1024.9 |
| 20260508085225 | 12 | 26 | 1.6 | 4.8 | 0.00 | 0.00 | 0.00 | 99 | 1025.3 |
| 20260508084720 | 12 | 57 | 3.2 | 3.2 | 0.00 | 0.00 | 0.00 | 99 | 1025.1 |
| 20260508084218 | 12 | 26 | 3.2 | 3.2 | 0.00 | 0.00 | 0.00 | 99 | 1025.1 |
| 20260508083715 | 12 | 53 | 3.2 | 3.2 | 0.00 | 0.00 | 0.00 | 99 | 1025.2 |
| 20260508083213 | 12 | 42 | 4.8 | 6.4 | 0.00 | 0.00 | 0.00 | 99 | 1025.2 |
| 20260508082708 | 12 | 52 | 3.2 | 4.8 | 0.00 | 0.00 | 0.00 | 99 | 1025.3 |
| 20260508082206 | 12 | 53 | 0.0 | 4.8 | 0.00 | 0.00 | 0.00 | 99 | 1025.1 |
| 20260508081703 | 12 | 32 | 1.6 | 4.8 | 0.00 | 0.00 | 0.00 | 99 | 1024.9 |
| 20260508081159 | 12 | 38 | 3.2 | 4.8 | 0.00 | 0.00 | 0.00 | 99 | 1025.2 |
| 20260508080657 | 12 | 21 | 3.2 | 3.2 | 0.00 | 0.00 | 0.00 | 99 | 1024.9 |
| 20260508080155 | 12 | 24 | 3.2 | 3.2 | 0.00 | 0.00 | 0.00 | 99 | 1024.7 |
| 20260508075651 | 12 | 36 | 3.2 | 4.8 | 0.00 | 0.00 | 0.00 | 99 | 1024.8 |
| 20260508075148 | 12 | 69 | 1.6 | 3.2 | 0.00 | 0.00 | 0.00 | 99 | 1025.0 |
| 20260508074646 | 12 | 30 | 3.2 | 4.8 | 0.00 | 0.00 | 0.00 | 99 | 1025.0 |
| 20260508074143 | 12 | 53 | 0.0 | 3.2 | 0.00 | 0.00 | 0.00 | 99 | 1024.9 |
| 20260508073639 | 12 | 57 | 3.2 | 3.2 | 0.00 | 0.00 | 0.00 | 99 | 1025.0 |
| 20260508073137 | 12 | 59 | 0.0 | 3.2 | 0.00 | 0.00 | 0.00 | 99 | 1024.9 |
| 20260508072633 | 12 | 40 | 3.2 | 3.2 | 0.00 | 0.00 | 0.00 | 99 | 1024.9 |
| 20260508072130 | 12 | 29 | 0.0 | 3.2 | 0.00 | 0.00 | 0.00 | 99 | 1025.1 |
| 20260508071628 | 13 | 105 | 1.6 | 4.8 | 0.00 | 0.00 | 0.00 | 98 | 1024.8 |
| 20260508071126 | 13 | 48 | 3.2 | 3.2 | 0.00 | 0.00 | 0.00 | 98 | 1024.9 |
| 20260508070623 | 13 | 33 | 3.2 | 3.2 | 0.00 | 0.00 | 0.00 | 98 | 1024.9 |
| 20260508070122 | 13 | 41 | 0.0 | 3.2 | 0.00 | 0.00 | 0.00 | 97 | 1025.0 |
| 20260508065618 | 13 | 66 | 0.0 | 3.2 | 0.00 | 0.00 | 0.00 | 97 | 1024.8 |
| 20260508065116 | 13 | 15 | 0.0 | 3.2 | 0.00 | 0.00 | 0.00 | 97 | 1024.6 |
| 20260508064614 | 13 | 28 | 3.2 | 4.8 | 0.00 | 0.00 | 0.00 | 97 | 1024.6 |
| 20260508064112 | 13 | 35 | 1.6 | 3.2 | 0.00 | 0.00 | 0.00 | 96 | 1024.5 |
| 20260508063609 | 13 | 20 | 0.0 | 3.2 | 0.00 | 0.00 | 0.00 | 96 | 1024.7 |
| 20260508063107 | 13 | 48 | 3.2 | 3.2 | 0.00 | 0.00 | 0.00 | 96 | 1024.6 |
| 20260508062604 | 14 | 17 | 3.2 | 3.2 | 0.00 | 0.00 | 0.00 | 95 | 1024.6 |
| 20260508062100 | 14 | 7 | 1.6 | 3.2 | 0.00 | 0.00 | 0.00 | 95 | 1024.6 |
| 20260508061558 | 14 | 352 | 0.0 | 3.2 | 0.00 | 0.00 | 0.00 | 95 | 1024.3 |
| 20260508061055 | 14 | 354 | 1.6 | 3.2 | 0.00 | 0.00 | 0.00 | 94 | 1024.4 |
| 20260508060552 | 14 | 352 | 0.0 | 1.6 | 0.00 | 0.00 | 0.00 | 94 | 1024.5 |
| 20260508060049 | 15 | 0 | 0.0 | 3.2 | 0.00 | 0.00 | 0.00 | 93 | 1024.6 |
| 20260508055544 | 15 | 0 | 0.0 | 1.6 | 0.00 | 0.00 | 0.00 | 93 | 1024.5 |
| 20260508055042 | 15 | 57 | 3.2 | 3.2 | 0.00 | 0.00 | 0.00 | 92 | 1024.7 |
| 20260508054538 | 15 | 32 | 3.2 | 4.8 | 0.00 | 0.00 | 0.00 | 92 | 1024.6 |
| 20260508054035 | 15 | 350 | 3.2 | 6.4 | 0.00 | 0.00 | 0.00 | 92 | 1024.4 |
| 20260508053532 | 15 | 24 | 3.2 | 3.2 | 0.00 | 0.00 | 0.00 | 91 | 1024.6 |
| 20260508053031 | 15 | 40 | 3.2 | 4.8 | 0.00 | 0.00 | 0.00 | 91 | 1024.6 |
| 20260508052527 | 15 | 23 | 3.2 | 4.8 | 0.00 | 0.00 | 0.00 | 91 | 1024.8 |
| 20260508052024 | 15 | 7 | 0.0 | 1.6 | 0.00 | 0.00 | 0.00 | 90 | 1024.9 |
| 20260508051520 | 15 | 18 | 0.0 | 1.6 | 0.00 | 0.00 | 0.00 | 90 | 1024.6 |
| 20260508051015 | 15 | 23 | 3.2 | 3.2 | 0.00 | 0.00 | 0.00 | 90 | 1024.8 |
| 20260508050512 | 15 | 23 | 4.8 | 4.8 | 0.00 | 0.00 | 0.00 | 89 | 1024.5 |
| 20260508050010 | 15 | 8 | 3.2 | 3.2 | 0.00 | 0.00 | 0.00 | 89 | 1024.5 |
| 20260508045506 | 15 | 49 | 3.2 | 4.8 | 0.00 | 0.00 | 0.00 | 89 | 1024.4 |
| 20260508045004 | 15 | 6 | 4.8 | 4.8 | 0.00 | 0.00 | 0.00 | 88 | 1024.5 |
| 20260508044501 | 15 | 74 | 1.6 | 1.6 | 0.00 | 0.00 | 0.00 | 88 | 1024.4 |
| 20260508043956 | 15 | 32 | 0.0 | 6.4 | 0.00 | 0.00 | 0.00 | 88 | 1024.5 |
| 20260508043453 | 15 | 6 | 4.8 | 6.4 | 0.00 | 0.00 | 0.00 | 89 | 1024.4 |
| 20260508042949 | 15 | 357 | 4.8 | 6.4 | 0.00 | 0.00 | 0.00 | 89 | 1024.4 |
| 20260508042448 | 15 | 0 | 4.8 | 9.7 | 0.00 | 0.00 | 0.00 | 90 | 1024.4 |
| 20260508041944 | 15 | 5 | 1.6 | 3.2 | 0.00 | 0.00 | 0.00 | 90 | 1024.2 |
| 20260508041441 | 16 | 30 | 3.2 | 4.8 | 0.00 | 0.00 | 0.00 | 89 | 1024.2 |
| 20260508040937 | 16 | 35 | 1.6 | 3.2 | 0.00 | 0.00 | 0.00 | 88 | 1024.1 |
| 20260508040435 | 16 | 32 | 3.2 | 4.8 | 0.00 | 0.00 | 0.00 | 87 | 1024.2 |
| 20260508035932 | 16 | 4 | 0.0 | 4.8 | 0.00 | 0.00 | 0.00 | 85 | 1024.1 |
| 20260508035429 | 17 | 85 | 3.2 | 4.8 | 0.00 | 0.00 | 0.00 | 84 | 1024.1 |
| 20260508034926 | 17 | 59 | 0.0 | 8.0 | 0.00 | 0.00 | 0.00 | 83 | 1023.9 |
| 20260508034423 | 17 | 28 | 3.2 | 6.4 | 0.00 | 0.00 | 0.00 | 83 | 1024.0 |
| 20260508033920 | 17 | 40 | 0.0 | 3.2 | 0.00 | 0.00 | 0.00 | 83 | 1024.1 |
| 20260508033418 | 17 | 45 | 3.2 | 3.2 | 0.00 | 0.00 | 0.00 | 83 | 1023.8 |
| 20260508032915 | 17 | 327 | 3.2 | 4.8 | 0.00 | 0.00 | 0.00 | 82 | 1024.0 |
| 20260508032412 | 18 | 78 | 0.0 | 4.8 | 0.00 | 0.00 | 0.00 | 81 | 1023.9 |
| 20260508031909 | 18 | 54 | 0.0 | 4.8 | 0.00 | 0.00 | 0.00 | 81 | 1023.8 |
| 20260508031407 | 18 | 340 | 0.0 | 4.8 | 0.00 | 0.00 | 0.00 | 80 | 1024.0 |
| 20260508030902 | 18 | 19 | 3.2 | 8.0 | 0.00 | 0.00 | 0.00 | 79 | 1023.9 |
| 20260508030359 | 18 | 41 | 0.0 | 6.4 | 0.00 | 0.00 | 0.00 | 79 | 1023.7 |
| 20260508025857 | 18 | 325 | 8.0 | 8.0 | 0.00 | 0.00 | 0.00 | 79 | 1023.6 |
| 20260508025353 | 18 | 43 | 8.0 | 8.0 | 0.00 | 0.00 | 0.00 | 79 | 1023.7 |
| 20260508024850 | 18 | 61 | 4.8 | 9.7 | 0.00 | 0.00 | 0.00 | 78 | 1023.5 |
| 20260508024347 | 18 | 65 | 11.3 | 11.3 | 0.00 | 0.00 | 0.00 | 78 | 1023.3 |
| 20260508023843 | 18 | 0 | 1.6 | 11.3 | 0.00 | 0.00 | 0.00 | 79 | 1023.3 |
| 20260508023340 | 18 | 90 | 3.2 | 6.4 | 0.00 | 0.00 | 0.00 | 80 | 1023.2 |
| 20260508022837 | 19 | 75 | 3.2 | 6.4 | 0.00 | 0.00 | 0.00 | 80 | 1023.1 |
| 20260508022332 | 19 | 61 | 0.0 | 14.5 | 0.00 | 0.00 | 0.00 | 79 | 1023.3 |
| 20260508021830 | 19 | 94 | 3.2 | 8.0 | 0.00 | 0.00 | 0.00 | 79 | 1023.0 |
| 20260508021326 | 19 | 134 | 8.0 | 8.0 | 0.00 | 0.00 | 0.00 | 80 | 1023.1 |
| 20260508020822 | 20 | 4 | 0.0 | 8.0 | 0.00 | 0.00 | 0.00 | 80 | 1022.8 |
| 20260508020320 | 20 | 104 | 9.7 | 11.3 | 0.00 | 0.00 | 0.00 | 81 | 1022.8 |
| 20260508015817 | 20 | 93 | 4.8 | 6.4 | 0.00 | 0.00 | 0.00 | 82 | 1022.4 |
| 20260508015314 | 20 | 72 | 8.0 | 29.0 | 0.00 | 0.00 | 0.00 | 82 | 1022.6 |
| 20260508014811 | 20 | 139 | 3.2 | 14.5 | 0.00 | 0.00 | 0.00 | 81 | 1022.4 |
| 20260508014308 | 20 | 0 | 0.0 | 8.0 | 0.00 | 0.00 | 0.00 | 81 | 1022.2 |
| 20260508013803 | 20 | 163 | 4.8 | 12.9 | 0.00 | 0.00 | 0.00 | 81 | 1022.0 |
| 20260508013300 | 20 | 216 | 3.2 | 11.3 | 0.00 | 0.00 | 0.00 | 81 | 1022.2 |
| 20260508012757 | 20 | 155 | 4.8 | 8.0 | 0.00 | 0.00 | 0.00 | 82 | 1022.1 |
| 20260508012255 | 20 | 13 | 6.4 | 14.5 | 0.00 | 0.00 | 0.00 | 82 | 1021.9 |
| 20260508011753 | 20 | 51 | 3.2 | 11.3 | 0.00 | 0.00 | 0.00 | 84 | 1021.5 |
| 20260508011250 | 20 | 18 | 3.2 | 4.8 | 0.00 | 0.00 | 0.00 | 82 | 1021.6 |
| 20260508010747 | 21 | 21 | 3.2 | 3.2 | 0.00 | 0.00 | 0.00 | 82 | 1021.3 |
| 20260508010245 | 21 | 249 | 0.0 | 4.8 | 0.00 | 0.00 | 0.00 | 81 | 1021.3 |
| 20260508005741 | 21 | 15 | 0.0 | 3.2 | 0.00 | 0.00 | 0.00 | 80 | 1021.5 |
| 20260508005238 | 21 | 32 | 4.8 | 6.4 | 0.00 | 0.00 | 0.00 | 80 | 1021.0 |
| 20260508004733 | 21 | 184 | 3.2 | 4.8 | 0.00 | 0.00 | 0.00 | 79 | 1021.1 |
| 20260508004230 | 21 | 246 | 1.6 | 9.7 | 0.00 | 0.00 | 0.00 | 80 | 1021.0 |
| 20260508003727 | 21 | 101 | 3.2 | 6.4 | 0.00 | 0.00 | 0.00 | 80 | 1020.7 |
| 20260508003224 | 21 | 270 | 0.0 | 6.4 | 0.00 | 0.00 | 0.00 | 80 | 1020.6 |